CW1172 Weather Reports


time (UTC)temp
F
wind
direction
speed
knots
gust
knots
rain 1hr
in
rain 24hr
in
rain mn
in
humidity
%
barometer
mb
20260507064545 51 195 0.0 0.0 0.00 0.00 0.00 68 1014.6
20260507063039 48 126 0.0 0.0 0.00 0.00 0.00 71 1014.5
20260507061537 47 126 0.0 0.0 0.00 0.00 0.00 73 1014.5
20260507060033 44 126 0.0 0.0 0.00 0.00 0.00 81 1014.5
20260507054528 41 127 0.0 0.0 0.00 0.00 0.00 83 1014.3
20260507053027 38 126 0.0 0.0 0.00 0.00 0.00 89 1014.1
20260507051518 37 126 0.0 0.0 0.00 0.00 0.00 89 1014.0
20260507050016 34 126 0.0 0.0 0.00 0.00 0.00 89 1014.0
20260507044514 33 125 0.0 0.0 0.00 0.00 0.00 88 1013.9
20260507043014 32 127 0.0 0.0 0.00 0.00 0.00 88 1013.7
20260507041518 31 127 0.0 0.0 0.00 0.00 0.00 88 1013.7
20260507040017 31 126 0.0 0.0 0.00 0.00 0.00 87 1013.5
20260507034519 31 126 0.0 0.0 0.00 0.00 0.00 87 1013.4
20260507033016 30 128 0.0 0.0 0.00 0.00 0.00 87 1013.4
20260507031512 30 126 0.0 0.0 0.00 0.00 0.00 87 1013.3
20260507030012 30 125 0.0 0.0 0.00 0.00 0.00 87 1013.2
20260507024511 30 126 0.0 0.0 0.00 0.00 0.00 86 1013.3
20260507023010 30 128 0.0 0.0 0.00 0.00 0.00 86 1013.1
20260507021514 30 128 0.0 0.0 0.00 0.00 0.00 86 1013.1
20260507020009 31 126 0.0 0.0 0.00 0.00 0.00 85 1013.0
20260507014508 31 126 0.0 0.0 0.00 0.00 0.00 85 1013.0
20260507013006 31 126 0.0 0.0 0.00 0.00 0.00 84 1013.0
20260507011504 31 126 0.0 0.0 0.00 0.00 0.00 84 1012.8
20260507010003 31 140 0.0 0.0 0.00 0.00 0.00 84 1012.9
20260507004501 32 141 0.0 0.0 0.00 0.00 0.00 83 1012.8
20260507003100 32 140 0.0 0.0 0.00 0.00 0.00 83 1012.6
20260507001616 32 141 0.0 0.0 0.00 0.00 0.00 82 1012.8
20260506234559 33 260 0.0 0.0 0.00 0.00 0.00 81 1012.5
20260506233054 33 260 0.0 0.0 0.00 0.00 0.00 80 1012.6
20260506231553 34 360 0.0 0.0 0.00 0.00 0.00 79 1012.5
20260506230052 34 360 0.0 0.0 0.00 0.00 0.00 78 1012.4
20260506224549 35 260 0.0 0.0 0.00 0.00 0.00 77 1012.4
20260506223045 36 360 0.0 0.0 0.00 0.00 0.00 76 1012.4
20260506221545 36 259 0.0 0.0 0.00 0.00 0.00 74 1012.2
20260506220054 37 260 0.0 0.0 0.00 0.00 0.00 73 1012.0
20260506214544 39 259 0.0 0.0 0.00 0.00 0.00 71 1012.0
20260506213040 41 259 0.0 0.0 0.00 0.00 0.00 70 1012.0
20260506211541 41 261 0.0 0.0 0.00 0.00 0.00 69 1011.8
20260506210040 41 241 0.0 0.0 0.00 0.00 0.00 70 1011.8
20260506204540 41 360 0.0 0.0 0.00 0.00 0.00 71 1011.7
20260506203113 41 248 0.0 0.0 0.00 0.00 0.00 69 1011.7
20260506201539 42 198 0.0 0.0 0.00 0.00 0.00 68 1011.6
20260506200047 43 198 0.0 0.0 0.00 0.00 0.00 66 1011.5
20260506194539 44 251 0.0 0.0 0.00 0.00 0.00 63 1011.4
20260506193039 46 252 0.0 0.0 0.00 0.00 0.00 61 1011.3
20260506191544 47 360 0.0 0.0 0.00 0.00 0.00 58 1011.2
20260506190048 48 360 0.0 0.0 0.00 0.00 0.00 54 1011.0
20260506184551 49 252 0.0 0.0 0.00 0.00 0.00 52 1010.9
20260506183039 50 253 0.0 0.0 0.00 0.00 0.00 52 1011.0
20260506181538 51 263 0.0 0.0 0.00 0.00 0.00 48 1010.9
20260506180039 52 360 0.0 0.0 0.00 0.00 0.00 45 1010.8
20260506174537 52 294 0.0 0.0 0.00 0.00 0.00 44 1010.9
20260506173047 54 261 0.0 0.0 0.00 0.00 0.00 44 1010.8
20260506171539 55 360 0.0 0.0 0.00 0.00 0.00 41 1010.8
20260506170038 55 274 0.0 0.0 0.00 0.00 0.00 43 1010.7
20260506164545 56 319 0.0 0.0 0.00 0.00 0.00 43 1010.8
20260506163054 58 30 0.0 0.0 0.00 0.00 0.00 41 1010.8
20260506161538 59 360 0.0 0.0 0.00 0.00 0.00 41 1010.8
20260506160037 58 236 0.0 0.0 0.00 0.00 0.00 42 1010.6
20260506154544 58 284 0.0 0.0 0.00 0.00 0.00 40 1010.6
20260506153037 58 305 0.0 0.0 0.00 0.00 0.00 42 1010.8
20260506151541 57 271 0.0 0.0 0.00 0.00 0.00 41 1010.8
20260506150037 57 299 0.0 0.0 0.00 0.00 0.00 41 1010.7
20260506144534 57 360 0.0 0.0 0.00 0.00 0.00 42 1010.8
20260506143034 57 272 0.0 0.0 0.00 0.00 0.00 43 1010.8
20260506141533 57 246 0.0 0.0 0.00 0.00 0.00 42 1010.9
20260506140035 56 326 0.0 0.0 0.00 0.00 0.00 39 1010.9
20260506134535 56 340 0.0 0.0 0.00 0.00 0.00 38 1010.8
20260506133036 57 317 0.0 0.0 0.00 0.00 0.00 38 1010.8
20260506131537 57 326 0.0 0.0 0.00 0.00 0.00 36 1010.8
20260506130037 58 287 0.0 0.0 0.00 0.00 0.00 33 1010.9
20260506124531 59 318 0.0 0.0 0.00 0.00 0.00 33 1010.9
20260506123031 59 335 0.0 0.0 0.00 0.00 0.00 33 1011.0
20260506121529 60 246 0.0 0.0 0.00 0.00 0.00 31 1011.0
20260506120027 59 267 0.0 0.0 0.00 0.00 0.00 31 1011.0
20260506114528 59 259 0.0 0.0 0.00 0.00 0.00 31 1011.0
20260506113025 59 298 0.0 0.0 0.00 0.00 0.00 30 1011.0
20260506111529 58 280 0.0 0.0 0.00 0.00 0.00 30 1011.0
20260506110024 58 279 0.0 0.0 0.00 0.00 0.00 32 1011.0
20260506104524 58 286 0.0 0.0 0.00 0.00 0.00 30 1011.2
20260506103022 58 234 0.0 0.0 0.00 0.00 0.00 31 1011.2
20260506101522 58 313 0.0 0.0 0.00 0.00 0.00 32 1011.2
20260506100020 57 219 0.0 0.0 0.00 0.00 0.00 34 1011.5
20260506094520 57 303 0.0 0.0 0.00 0.00 0.00 35 1011.6
20260506093020 57 225 0.0 0.0 0.00 0.00 0.00 36 1011.6
20260506091519 57 268 0.0 0.0 0.00 0.00 0.00 34 1011.7
20260506090018 57 360 0.0 0.0 0.00 0.00 0.00 34 1011.8
20260506084523 56 155 0.0 0.0 0.00 0.00 0.00 32 1011.9
20260506083019 55 173 0.0 0.0 0.00 0.00 0.00 33 1011.9
20260506081517 55 176 0.0 0.0 0.00 0.00 0.00 33 1011.8
20260506073009 53 360 0.0 0.0 0.00 0.00 0.00 45 1011.7
20260506071506 52 360 0.0 0.0 0.00 0.00 0.00 51 1011.8